IBE3LW KMIA-LEIB

Flight info

Callsign IBE3LW
Flight time N/A
Altitude 39000
Route FOLZZ3 SUMRS/M085F390 M204 BEXUM DCT 3430N06900W 3630N06600W DCT SOORY DCT 42N050W 44N040W/M085F410 44N030W 43N020W DCT BANAL/N0487F410 DCT ASMOV DCT VIS DCT RIVRO DCT BARDI/N0484F400 M191 DIPOL M871 NVS/N0486F410 DCT NANDO/N0485F400 M871 MINGU/N0499F320 M871 LASPO Z224 VARUT
Aircraft A359/H-SDE2E3GHIJ1J3J4J5LM1ORWXY/LB1D1

Departure

Time 2026-04-30 17:56
Airport Miami International Airport (KMIA)

Arrival

Time N/A
Airport Ibiza Airport (LEIB)
Time Latitude Longitude Altitude Speed Heading
2026-04-30 17:39 25.79428 -80.28573 23 ft 0 kts 177°
2026-04-30 17:44 25.79424 -80.28573 22 ft 2 kts 177°
2026-04-30 17:46 25.79257 -80.28612 21 ft 0 kts 209°
2026-04-30 17:47 25.79104 -80.28691 20 ft 10 kts 188°
2026-04-30 17:48 25.78947 -80.28835 21 ft 10 kts 265°
2026-04-30 17:48 25.78902 -80.29111 21 ft 14 kts 266°
2026-04-30 17:49 25.78881 -80.29609 21 ft 18 kts 267°
2026-04-30 17:50 25.78856 -80.30230 21 ft 22 kts 267°
2026-04-30 17:51 25.78834 -80.30764 21 ft 24 kts 267°
2026-04-30 17:52 25.78811 -80.31308 21 ft 16 kts 268°
2026-04-30 17:53 25.78618 -80.31325 21 ft 0 kts 87°
2026-04-30 17:55 25.78663 -80.30206 22 ft 117 kts 87°
2026-04-30 17:56 25.78502 -80.25204 1625 ft 184 kts 107°
2026-04-30 17:57 25.77339 -80.20214 2466 ft 254 kts 106°
2026-04-30 17:58 25.75171 -80.14672 4474 ft 268 kts 120°
2026-04-30 17:59 25.76516 -80.07043 7065 ft 288 kts 47°
2026-04-30 18:00 25.81959 -80.00272 9954 ft 300 kts 46°
2026-04-30 18:00 25.86379 -79.94681 10957 ft 348 kts 46°
2026-04-30 18:01 25.89709 -79.90452 11506 ft 377 kts 46°
2026-04-30 18:02 25.94998 -79.83709 13036 ft 392 kts 45°
2026-04-30 18:02 26.00435 -79.76775 14609 ft 401 kts 45°
2026-04-30 18:03 26.06007 -79.69659 16058 ft 411 kts 46°
2026-04-30 18:04 26.11573 -79.62264 17491 ft 422 kts 51°
2026-04-30 18:05 26.18423 -79.51471 19257 ft 434 kts 52°
2026-04-30 18:06 26.25480 -79.40330 20888 ft 446 kts 53°
2026-04-30 18:07 26.33589 -79.31529 22298 ft 451 kts 30°
2026-04-30 18:08 26.42503 -79.25225 23501 ft 461 kts 31°
2026-04-30 18:09 26.52491 -79.18106 24713 ft 468 kts 31°
2026-04-30 18:10 26.63546 -79.10200 26291 ft 476 kts 30°
2026-04-30 18:11 26.74800 -79.02133 27907 ft 484 kts 30°
2026-04-30 18:11 26.83374 -78.95973 29081 ft 491 kts 29°
2026-04-30 18:12 26.92014 -78.89756 30134 ft 497 kts 28°
2026-04-30 18:13 26.97860 -78.85542 30724 ft 500 kts 28°
2026-04-30 18:13 27.06642 -78.79199 31886 ft 497 kts 28°
2026-04-30 18:14 27.12405 -78.75030 32740 ft 493 kts 28°
2026-04-30 18:15 27.21004 -78.68802 33983 ft 487 kts 27°
2026-04-30 18:15 27.29231 -78.62115 34925 ft 493 kts 40°
2026-04-30 18:16 27.33641 -78.56149 35550 ft 495 kts 46°
2026-04-30 18:16 27.37866 -78.50099 36130 ft 493 kts 46°
2026-04-30 18:17 27.39990 -78.47065 36412 ft 492 kts 46°
2026-04-30 18:17 27.42105 -78.44044 36707 ft 491 kts 46°